Location: *
(33.5860°N, 145.2530°W)
Time: 03:14:51
(UTC+00:00)

Daily predictions for brighter satellites

Satellite Brightness Start Highest point End
(mag) Time Altitude Azimuth Time Altitude Azimuth Time Altitude Azimuth
NOSS 3-1 (A) 4.5 04:08:05 10° NNW 04:15:39 49° NE 04:24:05 10° SE
Cosmos 2098 Rocket 2.9 04:17:57 10° N 04:21:38 81° E 04:26:16 10° S
STARLINK-1224 3.8 04:17:38 10° SW 04:21:39 73° NW 04:25:40 10° NE
SOZ 4.0 04:21:23 10° NW 04:23:53 74° SW 04:25:51 10° SE
STARLINK-1225 4.0 04:22:20 10° SW 04:26:19 65° NW 04:30:19 10° NE
Delta 2 Rocket 3.8 04:22:02 10° WNW 04:26:31 71° N 04:31:37 10° E
Cosmos 1420 Rocket 4.1 04:21:43 10° NNW 04:27:00 90° S 04:32:11 10° SSE
STARLINK-1230 4.2 04:26:53 10° WSW 04:30:51 59° NW 04:34:48 10° NE
STARLINK-1203 4.4 04:27:29 10° WSW 04:31:18 51° NW 04:35:09 10° NE
Okean 1 Rocket 4.1 04:28:02 10° SSW 04:32:18 52° W 04:36:34 10° N
STARLINK-1162 4.4 04:30:04 10° NW 04:34:09 53° SW 04:38:11 10° SSE
Cosmos 1544 Rocket 4.5 04:31:04 10° SSE 04:34:42 26° E 04:38:22 10° NNE
Abrixas rocket 2.9 04:32:25 10° SSW 04:34:59 28° SE 04:37:30 11° ENE
Meteor 1-22 Rocket 4.4 04:30:13 10° SSE 04:35:15 44° E 04:40:15 10° NNE
STARLINK-1243 4.4 04:31:32 10° WSW 04:35:28 53° NW 04:39:25 10° NE
STARLINK-1129 4.5 04:34:04 10° NW 04:38:05 50° SW 04:42:04 10° SSE
S3M 4.0 04:32:18 10° S 04:38:34 68° E 04:44:54 10° NNE
FREGAT/IRIS 4.2 04:39:21 13° E 04:39:58 14° ENE 04:41:31 10° NE
CSL-04 Debris 4.3 04:34:58 10° SSE 04:40:28 84° WSW 04:45:59 10° NNW
CZ-2C R/B 4.0 04:36:45 10° SE 04:41:00 27° ENE 04:45:06 10° NNE
OAO 2 Rocket 3.4 04:38:28 10° W 04:43:37 83° SSW 04:47:54 14° ESE
Cosmos 1626 3.7 04:45:40 10° NE 04:48:07 17° ENE 04:48:51 16° E
NOSS 3-1 (C) 4.4 04:40:56 10° NW 04:48:55 76° WSW 04:57:45 10° SSE
BREEZE-M DEB (TANK) 3.7 04:40:18 10° SW 04:51:17 64° NW 04:54:39 10° NE
Cosmos 1386 Rocket 4.5 04:45:33 10° N 04:51:28 55° E 04:57:19 10° SSE
Cosmos 1242 Rocket 4.2 04:53:30 10° NNW 04:56:41 35° W 04:59:53 10° SSW
Cosmos 494 Rocket 4.2 04:52:57 10° SSW 04:58:03 76° WNW 05:03:14 10° NNE
SL-08 ROCKET BODY 4.4 04:52:06 10° N 04:58:10 62° E 05:04:04 10° SSE
Cosmos 1805 4.0 04:56:14 10° SSW 05:00:03 55° W 05:03:54 10° N
USA 234 3.4 04:53:43 10° NE 05:00:16 77° NW 05:06:47 10° SW
USA 81 4.0 04:55:59 10° N 05:01:14 70° E 05:06:28 10° S
Cosmos 1452 Rocket 4.2 04:58:41 10° NNW 05:03:50 56° WSW 05:08:58 10° S
USA 186 2.3 05:02:44 22° SE 05:04:33 40° ENE 05:07:47 10° N
ATLAS 5 CENTAUR R/B 4.0 05:00:33 10° S 05:05:13 21° SE 05:09:30 18° ESE
Meteor 2-16 Rocket 4.4 05:00:18 10° N 05:06:29 90° SW 05:12:37 10° S
CZ-4 R/B 4.2 05:03:49 10° SW 05:06:40 19° W 05:09:31 10° NW
Cosmos 1943 Rocket 4.1 05:06:51 10° NE 05:08:26 11° NE 05:08:56 11° ENE
Cosmos 304 Rocket 4.1 05:04:08 10° N 05:08:43 45° ENE 05:11:23 23° SE
Cosmos 1331 Rocket 4.2 05:04:29 10° N 05:09:28 48° ENE 05:12:38 21° SE
Cosmos 883 Rocket 4.4 05:03:22 10° S 05:09:29 71° E 05:15:41 10° N
HJ-1C 4.1 05:06:43 10° S 05:09:58 54° W 05:13:16 10° NNW
Orbus 7S? 2.7 05:10:03 10° NNW 05:12:27 42° NE 05:12:32 42° NE
SL-16 R/B 2.1 05:07:19 10° SSW 05:12:58 85° ESE 05:18:39 10° NNE
Resurs 01 Rocket 3.6 05:15:03 14° NE 05:15:03 14° NE 05:16:24 10° NE
Ariane Rocket 2.9 05:11:13 10° SSE 05:16:18 87° ENE 05:21:23 10° NNW
Cosmos 371 Rocket 3.8 05:11:34 10° NNW 05:16:19 60° WSW 05:21:04 10° S
Atlas Centaur 2 4.1 05:16:19 10° WSW 05:19:27 15° SW 05:22:15 10° S
Cosmos 1470 2.8 05:15:53 10° S 05:19:38 53° E 05:23:24 10° NNE
Cosmos 1745 Rocket 4.2 05:13:35 10° N 05:19:52 76° W 05:26:03 10° S
SJ-6B 2.9 05:21:25 35° SE 05:22:50 54° ENE 05:26:50 10° N
H-2A R/B 2.7 05:09:31 10° W 05:23:22 44° SSW 05:25:12 27° SSE
MOS 1 Rocket 4.1 05:18:38 10° NNE 05:23:28 35° E 05:25:07 29° SE
Cosmos 1758 3.4 05:19:52 10° S 05:23:51 55° E 05:27:52 10° NNE
Cosmos 1110 Rocket 3.9 05:24:32 10° NNW 05:29:48 88° ENE 05:33:12 22° SSE
OAO 3 Copernicus 4.3 05:27:21 10° W 05:32:24 76° N 05:34:14 39° ENE
H-2A R/B 2.3 05:31:53 10° S 05:37:15 72° WSW 05:42:31 10° NNW
CZ-3 Stage 3 4.3 05:34:39 10° WSW 05:41:42 69° SSE 06:30:17 10° E
DMSP B5D2-2 3.9 05:37:20 10° NNE 05:42:32 67° ESE 05:47:42 10° S
Cosmos 2315 Rocket 4.1 05:36:38 10° S 05:42:54 77° W 05:49:16 10° N
Cosmos 2297 3.7 05:38:16 10° NNW 05:43:53 60° ENE 05:45:06 49° ESE
SL-14 R/B 3.7 05:46:31 10° NNW 05:50:30 61° W 05:51:32 44° SSW
GOES 2 Rocket 4.0 05:51:50 10° WSW 05:55:56 40° SSW 05:55:56 40° SSW
Cosmos 2278 Rocket 4.2 05:51:54 10° NW 05:56:29 26° WSW 06:01:04 10° SSW
ARGOS 3.8 05:53:59 15° S 05:58:19 55° W 06:03:37 10° NNW
CZ-2C R/B 2.4 05:54:03 10° NNE 05:59:14 80° ESE 06:00:21 56° S
Cosmos 1626 Rocket 3.6 05:55:39 10° N 05:59:55 78° WNW 05:59:55 78° WNW
Cosmos 1953 4.5 06:09:07 19° N 06:09:07 19° N 06:10:16 10° N
Cosmos 1602 Rocket 4.1 06:02:55 10° N 06:06:25 55° NNW 06:06:25 55° NNW
Cosmos 1302 Rocket 3.9 06:02:10 10° NNW 06:07:28 89° ENE 06:07:30 88° ESE
Cosmos 2251 Rocket 3.4 06:08:42 84° NE 06:08:42 84° NE 06:13:56 10° NNE
Delta 2 Rocket 4.1 06:04:17 10° W 06:08:45 61° SW 06:08:45 61° SW
NOSS 3-3 (A) 3.6 06:03:46 10° SSW 06:09:25 79° ESE 06:15:38 10° NNE
NOSS 3-3 (C) 3.6 06:03:53 10° SSW 06:09:31 78° ESE 06:15:44 10° NNE
MetOp-A 4.1 06:11:40 67° SSW 06:12:17 77° WSW 06:17:40 10° NNW
Cosmos 1626 4.5 06:20:28 10° NW 06:23:16 21° W 06:23:27 21° W
Cosmos 2369 Rocket 3.5 06:20:06 10° N 06:23:21 29° NNE 06:23:21 29° NNE
Cosmos 2074 Rocket 4.1 06:23:32 10° N 06:28:56 66° NNE 06:28:56 66° NNE
Resurs 01 Rocket 3.9 06:52:36 21° NW 06:52:36 21° NW 06:54:18 10° NNW
Cosmos 1943 Rocket 3.4 06:47:18 10° NNW 06:50:28 36° NNW 06:50:28 36° NNW
